GW1620 Weather Reports


time (UTC)temp
C
wind
direction
speed
KPH
gust
KPH
rain 1hr
cm
rain 24hr
cm
rain mn
cm
humidity
%
barometer
mb
20260509213041 11 315 0.0 8.0 0.00 0.00 0.00 95 1004.3
20260509211546 11 293 0.0 1.6 0.00 0.00 0.00 93 1004.7
20260509210041 11 0 0.0 3.2 0.00 0.00 0.00 94 1005.0
20260509204537 11 0 0.0 0.0 0.00 0.00 0.00 93 1005.0
20260509203037 12 0 0.0 0.0 0.00 0.00 0.00 92 1005.4
20260509201542 12 0 0.0 0.0 0.00 0.00 0.00 94 1005.7
20260509200044 12 0 0.0 0.0 0.00 0.00 0.00 92 1005.8
20260509194538 12 0 0.0 0.0 0.00 0.00 0.00 93 1006.1
20260509193040 12 0 0.0 1.6 0.00 0.00 0.00 93 1006.5
20260509191537 12 307 0.0 1.6 0.00 0.00 0.00 90 1006.7
20260509190052 13 0 0.0 1.6 0.00 0.00 0.00 89 1006.7
20260509184541 13 334 0.0 0.0 0.00 0.00 0.00 88 1007.1
20260509183036 14 0 0.0 0.0 0.00 0.00 0.00 88 1007.5
20260509181544 13 0 0.0 0.0 0.00 0.00 0.00 88 1007.6
20260509180045 14 0 0.0 1.6 0.00 0.00 0.00 87 1007.7
20260509174541 15 0 0.0 6.4 0.00 0.00 0.00 86 1007.9
20260509173045 14 0 0.0 1.6 0.00 0.00 0.00 86 1008.1
20260509171540 15 0 0.0 3.2 0.00 0.00 0.00 86 1008.2
20260509170040 15 340 0.0 8.0 0.00 0.00 0.00 85 1008.2
20260509164537 15 0 0.0 0.0 0.00 0.00 0.00 86 1008.2
20260509163101 15 0 0.0 0.0 0.00 0.00 0.00 86 1008.1
20260509161544 15 0 0.0 1.6 0.00 0.00 0.00 84 1008.1
20260509160041 16 0 0.0 0.0 0.00 0.00 0.00 82 1008.0
20260509154543 17 0 0.0 0.0 0.00 0.00 0.00 81 1007.8
20260509153037 17 0 0.0 1.6 0.00 0.00 0.00 80 1007.7
20260509151536 18 0 0.0 3.2 0.00 0.00 0.00 78 1007.7
20260509150042 18 92 1.6 4.8 0.00 0.00 0.00 76 1007.6
20260509144543 19 91 1.6 6.4 0.00 0.00 0.00 73 1007.7
20260509143048 19 104 1.6 4.8 0.00 0.00 0.00 71 1007.6
20260509141542 20 49 3.2 6.4 0.00 0.00 0.00 71 1007.7
20260509140047 20 97 3.2 6.4 0.00 0.00 0.00 71 1007.6
20260509134537 20 113 1.6 8.0 0.00 0.03 0.00 69 1007.7
20260509133042 20 103 3.2 8.0 0.00 0.03 0.00 71 1007.7
20260509131543 20 89 3.2 8.0 0.00 0.03 0.00 69 1007.8
20260509130044 19 79 3.2 8.0 0.00 0.03 0.00 71 1007.8
20260509124541 20 86 3.2 9.7 0.00 0.03 0.00 70 1007.8
20260509123048 20 109 3.2 8.0 0.00 0.03 0.00 69 1007.9
20260509121541 20 80 3.2 11.3 0.00 0.03 0.00 71 1007.9
20260509120041 20 76 3.2 9.7 0.00 0.03 0.00 70 1007.9
20260509114542 20 101 3.2 8.0 0.00 0.03 0.00 70 1008.1
20260509113052 20 165 1.6 11.3 0.00 0.03 0.00 70 1008.3
20260509111545 20 151 3.2 14.5 0.00 0.03 0.00 71 1008.5
20260509110037 20 210 4.8 11.3 0.00 0.03 0.00 69 1008.8
20260509104552 20 156 3.2 9.7 0.00 0.03 0.00 66 1009.0
20260509103050 20 192 3.2 9.7 0.00 0.03 0.00 70 1009.4
20260509101540 21 227 3.2 8.0 0.00 0.03 0.00 69 1009.7
20260509100058 20 75 3.2 11.3 0.00 0.03 0.00 68 1010.0
20260509094547 20 204 1.6 9.7 0.00 0.03 0.00 68 1010.2
20260509093045 20 271 3.2 16.1 0.00 0.03 0.00 62 1010.6
20260509091546 20 262 3.2 9.7 0.00 0.03 0.00 65 1010.7
20260509090042 20 330 4.8 9.7 0.00 0.03 0.00 64 1011.0
20260509084541 19 314 1.6 8.0 0.00 0.03 0.00 71 1011.3
20260509083042 18 326 1.6 9.7 0.00 0.03 0.00 74 1011.5
20260509081537 18 312 3.2 9.7 0.00 0.03 0.00 73 1011.7
20260509080049 17 297 1.6 6.4 0.00 0.03 0.00 78 1011.9
20260509074544 16 307 0.0 6.4 0.00 0.03 0.00 81 1012.2
20260509073046 16 350 0.0 6.4 0.00 0.03 0.00 84 1012.2
20260509071542 15 342 1.6 4.8 0.00 0.03 0.00 84 1012.2
20260509070047 15 351 1.6 4.8 0.00 0.03 0.00 85 1012.4
20260509064543 14 0 0.0 0.0 0.00 0.05 0.00 86 1012.5
20260509063042 13 0 0.0 1.6 0.00 0.05 0.00 89 1012.5
20260509061555 12 0 0.0 0.0 0.00 0.05 0.00 91 1012.4
20260509060038 11 333 0.0 0.0 0.00 0.05 0.00 93 1012.3
20260509054549 10 318 1.6 4.8 0.00 0.05 0.00 94 1012.1
20260509053052 10 311 3.2 6.4 0.00 0.05 0.00 94 1012.1
20260509051548 9 321 1.6 4.8 0.00 0.05 0.00 95 1012.1
20260509050041 8 0 0.0 3.2 0.00 0.05 0.00 93 1012.1
20260509044546 9 311 3.2 8.0 0.00 0.18 0.00 95 1012.2
20260509043117 8 281 1.6 4.8 0.00 0.18 0.00 96 1012.2
20260509041543 8 0 0.0 0.0 0.00 0.18 0.00 95 1012.2
20260509040043 8 0 0.0 0.0 0.00 0.18 0.00 95 1012.3
20260509034542 8 0 0.0 0.0 0.00 0.23 0.00 95 1012.4
20260509033037 9 0 0.0 4.8 0.00 0.23 0.00 94 1012.4
20260509031550 9 22 0.0 6.4 0.00 0.23 0.00 95 1012.4
20260509030044 9 0 0.0 6.4 0.00 0.23 0.00 94 1012.5
20260509024542 9 321 3.2 6.4 0.00 0.41 0.00 95 1012.6
20260509023042 9 0 0.0 4.8 0.00 0.41 0.00 94 1012.5
20260509021540 10 0 0.0 8.0 0.00 0.41 0.00 93 1012.4
20260509020039 10 314 3.2 6.4 0.00 0.41 0.00 94 1012.2
20260509014537 9 333 1.6 6.4 0.00 0.74 0.00 94 1012.4
20260509013047 10 304 1.6 6.4 0.00 0.74 0.00 93 1012.6
20260509011542 10 0 0.0 4.8 0.00 0.74 0.00 92 1012.6
20260509010040 10 274 1.6 4.8 0.00 0.74 0.00 91 1012.9
20260509004540 10 286 3.2 6.4 0.00 1.30 0.00 93 1013.0
20260509003040 10 0 0.0 0.0 0.00 1.30 0.00 94 1013.2
20260509001535 10 0 0.0 0.0 0.00 1.30 0.00 94 1013.3
20260509000041 10 0 0.0 6.4 0.00 1.30 0.00 94 1013.5
20260508234545 10 277 0.0 4.8 0.00 1.35 0.00 94 1013.5
20260508233040 10 0 0.0 0.0 0.00 1.35 0.00 94 1013.5
20260508231557 10 0 0.0 1.6 0.00 1.35 0.00 94 1013.5
20260508230046 10 0 1.6 6.4 0.00 1.35 0.00 94 1013.5
20260508224536 10 0 0.0 6.4 0.00 1.37 0.00 93 1013.5
20260508223046 10 311 3.2 8.0 0.00 1.37 0.00 93 1013.5
20260508221541 10 293 1.6 8.0 0.00 1.37 0.00 93 1013.7
20260508220044 11 276 3.2 8.0 0.00 1.37 0.00 93 1013.8
20260508214559 11 297 4.8 9.7 0.00 1.47 1.37 93 1013.7